Temp
54 46 45 51 55 56 57 55 52 57 66 64 62 62 68 72 70 71 75 74 74 77 79 79 81 75 75 71 69 68 67 67 70 70 66 65 65 64 65 66 68 68 66 68
48 43 54 58 57 54 53 50 49 56 64 62 62 61 68 71 72 73 74 73 72 70 73 76 73 71 70 70 67 66 67 67 67 66 64 65 65 65 67 67 66 67 67 67
44 49 59 56 53 52 51 50 50 51 59 62 59 54 58 67 68 72 71 74 73 71 72 73 73 69 66 67 65 66 67 67 67 67 66 64 65 64 64 63 63 65 67 66
46 54 54 53 50 54 46 57 56 55 52 45 60 44 57 64 67 70 71 69 69 72 72 72 70 64 65 65 66 66 66 67 68 66 66 64 62 61 62 64 63 63 67 66
45 48 48 49 52 57 50 59 57 56 50 50 52 43 55 58 61 65 68 69 73 76 71 71 68 67 65 65 65 66 66 66 65 66 66 63 62 62 61 62 62 63 64 66
51 57 54 52 57 58 59 54 53 53 47 39 48 46 51 56 61 64 65 69 74 76 72 67 66 66 64 64 65 66 65 64 65 65 65 64 62 61 61 60 61 61 61 62
46 49 56 59 50 54 50 41 33 30 33 36 51 47 53 58 62 65 67 68 70 70 64 63 65 64 64 64 65 65 64 63 64 64 64 63 62 62 62 61 60 60 60 61
38 34 50 57 50 43 45 43 33 27 29 38 51 43 52 66 73 73 74 75 74 64 63 65 66 65 65 65 64 64 64 62 64 64 63 63 63 61 61 61 61 61 61 61
35 37 52 55 55 51 44 41 47 39 45 36 44 51 61 68 68 71 72 68 67 64 63 64 64 64 65 64 63 65 64 63 64 64 63 62 62 62 62 62 62 62 62 63
41 32 47 52 55 54 49 51 38 37 30 30 40 44 48 55 60 65 65 68 61 62 63 64 64 64 65 64 64 64 64 63 63 63 63 63 63 63 62 62 62 63 62 64
41 36 39 46 44 42 42 41 42 41 39 36 33 41 55 58 60 64 66 65 62 63 64 65 65 65 65 65 65 64 64 63 62 63 63 62 62 63 62 62 63 63 63 63
41 34 30 37 48 53 48 43 41 34 35 39 43 44 63 62 64 67 64 65 65 66 66 65 65 66 65 65 65 65 63 63 63 64 64 62 62 62 62 62 63 63 63 63
40 32 26 31 39 47 44 46 43 39 42 40 36 43 64 63 67 71 61 65 66 65 65 65 66 66 66 66 66 66 64 65 64 64 62 62 62 62 61 62 62 63 63 63
45 34 31 24 33 40 37 43 44 38 32 39 44 48 58 63 65 68 65 66 66 66 66 66 66 67 67 68 68 66 65 66 64 64 63 66 63 62 62 62 62 63 64 63
38 31 38 38 40 42 40 41 44 40 40 34 43 42 49 55 65 69 65 67 66 66 66 66 66 67 68 68 68 68 67 66 64 69 68 67 66 62 62 62 62 63 63 63
39 33 36 33 41 41 38 43 44 45 45 44 44 43 57 60 62 64 68 68 66 67 68 68 69 68 68 69 68 68 68 66 66 67 69 66 65 63 62 62 62 62 62 61
34 32 33 30 38 39 33 41 44 46 49 47 40 49 58 58 59 57 63 69 68 68 69 69 70 69 70 70 70 66 68 65 66 66 69 69 66 64 63 63 62 61 60 60
37 33 34 29 34 25 41 49 49 45 50 50 52 55 59 59 58 60 61 65 70 70 71 71 72 71 71 71 69 67 68 67 67 67 69 69 66 64 63 62 60 60 59 59
44 39 31 30 31 37 44 41 41 42 45 50 46 60 66 62 61 60 61 62 64 73 73 73 74 72 71 71 68 68 68 67 68 67 71 68 67 64 62 61 59 59 60 58
46 44 34 32 28 28 35 40 46 47 40 49 48 51 57 58 50 53 58 61 64 74 75 75 74 73 71 71 69 68 67 66 66 68 70 70 68 65 61 60 59 59 59 58
35 35 31 31 30 34 40 41 49 38 38 47 49 53 55 55 55 61 60 61 64 68 74 76 74 72 72 71 70 68 67 66 68 71 70 68 65 64 62 60 59 59 59 58
32 31 32 32 32 29 42 43 38 41 47 47 49 54 54 57 60 62 61 60 62 66 72 75 73 72 71 72 71 68 67 70 68 70 70 65 63 67 64 60 59 59 59 60
33 37 33 32 32 41 43 42 47 47 46 47 48 57 57 57 58 62 60 60 62 65 66 70 71 69 71 72 72 68 70 68 67 67 66 64 65 64 62 60 59 58 58 61
40 44 37 36 41 44 46 48 48 49 48 49 52 57 58 57 60 60 61 62 62 66 66 68 68 64 64 70 72 72 70 71 68 66 65 65 64 60 61 61 60 59 58 57
40 40 38 39 44 45 49 49 50 51 51 52 55 58 57 58 59 60 63 64 67 67 69 68 70 65 65 67 69 70 73 69 67 67 66 65 65 63 60 60 59 60 60 60
40 39 36 35 45 43 43 49 52 51 50 51 52 56 59 59 58 60 63 65 66 67 70 70 71 69 68 68 68 71 74 70 67 66 66 65 64 62 62 57 52 42 46 49
MSLP
1007.91 1008.11 1006.63 1006.21 1007.03 1007.19 1006.68 1006.25 1005.34 1004.64 1004.26 1003.88 1003.26 1002.19 1001.20 1001.11 1001.01 1000.53 999.66 999.77 999.15 998.72 998.31 998.06 997.91 998.02 998.21 998.55 999.02 999.36 999.73 1000.35 1000.89 1001.83 1002.63 1003.39 1003.94 1004.56 1004.93 1005.16 1005.45 1005.80 1006.34 1006.65
1008.17 1006.53 1006.55 1007.24 1007.41 1007.53 1007.20 1006.58 1005.52 1005.34 1004.54 1003.68 1003.31 1002.05 1001.18 1000.74 1000.19 999.79 999.34 999.08 998.68 998.52 998.12 997.77 997.79 998.02 998.05 998.37 998.89 999.39 999.71 1000.39 1000.91 1001.55 1002.37 1002.97 1003.72 1004.36 1004.54 1004.86 1005.33 1005.68 1005.99 1006.40
1007.58 1006.77 1007.01 1007.34 1007.12 1006.89 1006.35 1006.22 1006.09 1005.99 1005.22 1003.70 1003.86 1002.70 1001.44 1000.09 999.55 998.80 998.68 998.17 998.01 997.97 997.84 997.70 998.02 998.02 998.22 998.55 999.04 999.51 999.95 1000.35 1000.97 1001.45 1002.32 1003.22 1003.80 1004.40 1004.86 1005.18 1005.46 1005.61 1005.82 1006.13
1007.20 1006.83 1006.74 1006.72 1006.63 1006.78 1006.01 1006.23 1006.20 1006.15 1005.98 1004.16 1004.39 1002.35 1001.27 999.62 998.44 998.28 998.17 997.97 997.90 997.38 997.20 997.32 997.72 998.25 998.40 998.91 999.25 999.49 1000.52 1000.80 1001.16 1001.59 1002.43 1003.21 1004.05 1004.64 1004.82 1004.99 1005.22 1005.50 1005.87 1006.22
1006.39 1006.39 1006.54 1006.60 1006.08 1005.98 1005.35 1005.93 1005.86 1005.95 1005.63 1005.48 1004.37 1004.16 997.76 999.12 997.76 997.56 997.45 997.26 996.82 996.54 996.83 997.01 997.50 998.04 998.63 999.06 999.48 999.90 1000.52 1001.21 1001.55 1001.90 1002.55 1003.40 1004.13 1004.48 1004.78 1005.04 1005.40 1005.72 1005.97 1006.08
1006.55 1006.72 1006.41 1006.02 1005.77 1005.80 1005.86 1005.71 1005.95 1005.93 1006.00 1005.33 1004.03 1004.06 996.62 997.72 996.84 996.82 996.66 996.44 996.13 996.09 996.16 996.64 997.35 998.15 998.83 999.28 999.83 1000.24 1000.96 1001.55 1001.83 1002.30 1002.88 1003.49 1004.12 1004.59 1005.06 1005.45 1005.72 1005.98 1006.11 1006.13
1006.82 1006.49 1005.84 1005.60 1005.63 1005.63 1005.99 1006.59 1006.66 1006.44 1006.00 1003.54 1003.74 1003.13 996.96 995.89 995.45 995.68 996.03 995.95 995.90 995.74 996.45 997.11 997.38 998.21 999.08 999.60 999.94 1000.51 1001.18 1001.78 1001.97 1002.55 1003.18 1003.54 1004.15 1004.46 1004.87 1005.39 1005.70 1006.01 1006.17 1006.21
1007.38 1006.65 1005.63 1005.26 1005.60 1005.90 1005.76 1006.20 1005.93 1005.70 1005.20 1004.19 1002.99 1000.02 996.48 997.25 995.68 995.40 994.87 995.12 995.03 995.52 996.19 996.96 997.39 997.93 998.64 999.44 1000.04 1000.60 1001.28 1001.85 1002.13 1002.72 1003.27 1003.67 1004.07 1004.54 1004.98 1005.30 1005.54 1005.75 1005.89 1005.94
1007.78 1006.99 1006.08 1005.56 1005.44 1005.87 1005.50 1005.32 1005.62 1005.76 1004.98 1004.57 1001.83 999.17 997.07 995.81 995.28 994.95 994.40 994.87 994.74 995.42 995.99 996.77 997.43 998.02 999.10 999.58 1000.09 1000.63 1001.18 1001.88 1002.28 1002.78 1003.27 1003.81 1004.12 1004.49 1004.83 1005.11 1005.25 1005.44 1005.58 1005.73
1008.46 1007.95 1006.80 1006.12 1005.56 1005.01 1005.34 1005.29 1005.52 1005.64 1005.31 1004.12 1001.14 999.19 996.73 995.35 994.76 994.06 994.15 994.06 994.47 995.39 996.35 997.08 997.77 998.54 998.99 999.79 1000.31 1000.94 1001.16 1001.78 1002.46 1002.78 1003.36 1003.85 1004.15 1004.34 1004.66 1005.01 1005.34 1005.39 1005.49 1005.62
1009.22 1008.92 1008.02 1007.21 1006.10 1005.24 1005.47 1005.11 1005.23 1005.16 1004.74 1003.16 1001.02 997.70 996.08 995.03 994.13 993.68 993.22 992.82 993.94 995.11 995.95 996.76 997.57 998.43 999.13 999.78 1000.44 1001.08 1001.35 1002.00 1002.55 1002.94 1003.51 1003.92 1004.23 1004.44 1004.69 1005.09 1005.27 1005.35 1005.43 1005.51
1009.91 1009.60 1008.99 1007.94 1006.53 1005.83 1005.75 1005.60 1005.74 1005.48 1004.37 1002.76 1000.91 996.50 995.66 994.84 993.94 993.58 993.35 993.10 993.79 994.63 995.53 996.33 997.57 998.32 999.03 999.74 1000.53 1001.04 1001.50 1002.06 1002.52 1002.98 1003.54 1003.93 1004.28 1004.51 1004.86 1005.15 1005.23 1005.30 1005.40 1005.50
1010.38 1010.17 1009.82 1008.08 1006.23 1005.88 1006.05 1005.83 1005.74 1005.12 1004.14 1002.53 1001.52 996.43 995.75 995.14 994.12 993.10 994.03 993.39 994.14 995.05 995.79 996.53 997.66 998.40 999.07 999.70 1000.43 1000.92 1001.44 1001.97 1002.45 1003.02 1003.55 1004.01 1004.31 1004.62 1004.98 1005.18 1005.19 1005.27 1005.39 1005.57
1010.62 1010.63 1010.20 1009.48 1008.12 1007.44 1006.65 1005.85 1005.80 1005.53 1004.55 1002.44 1000.49 998.82 996.34 995.56 994.25 993.12 993.75 993.99 994.09 994.74 995.43 996.43 997.46 998.14 998.91 999.54 1000.15 1000.73 1001.34 1001.77 1002.41 1002.94 1003.54 1003.87 1004.27 1004.65 1004.98 1005.14 1005.14 1005.23 1005.43 1005.63
1010.69 1010.48 1009.87 1008.78 1007.92 1007.36 1006.46 1005.56 1005.27 1005.14 1004.48 1003.50 1001.37 1000.00 997.45 996.15 994.58 993.21 993.27 993.86 994.15 994.75 995.49 996.27 996.95 997.76 998.58 999.12 999.97 1000.54 1001.07 1001.69 1002.27 1002.86 1003.40 1003.65 1004.20 1004.57 1004.85 1005.10 1005.10 1005.31 1005.54 1005.73
1010.52 1010.31 1009.84 1008.47 1007.22 1006.26 1005.50 1004.73 1004.64 1004.11 1003.69 1002.83 1001.71 999.85 997.35 995.77 994.23 992.76 992.47 992.97 993.54 994.10 995.00 995.87 996.76 997.51 998.32 998.77 999.56 1000.25 1000.90 1001.58 1002.10 1002.65 1003.09 1003.48 1003.96 1004.41 1004.82 1005.14 1005.31 1005.56 1005.81 1006.04
1010.28 1010.22 1009.70 1007.69 1006.74 1004.75 1004.80 1003.60 1003.34 1002.80 1002.26 1001.76 1000.77 999.06 997.35 995.93 995.28 993.57 993.38 992.26 992.92 993.63 994.49 995.26 996.10 996.97 997.70 998.39 999.13 999.97 1000.62 1001.32 1001.96 1002.50 1002.93 1003.29 1003.82 1004.29 1004.78 1005.13 1005.52 1005.86 1006.14 1006.39
1008.88 1009.23 1009.12 1007.75 1006.63 1005.28 1003.54 1003.05 1002.52 1002.28 1001.36 1000.98 1000.28 998.65 997.75 996.14 996.72 994.03 993.93 993.74 993.19 993.50 994.36 995.03 995.79 996.78 997.38 998.10 998.96 999.71 1000.43 1001.15 1001.76 1002.33 1002.80 1003.19 1003.68 1004.14 1004.77 1005.20 1005.68 1006.03 1006.39 1006.70
1007.69 1008.50 1008.65 1007.54 1005.86 1004.48 1003.61 1004.21 1003.87 1002.95 1001.39 1001.17 1000.54 997.45 996.50 996.14 995.06 995.22 994.92 994.71 993.79 993.19 993.73 994.36 995.29 996.13 996.92 997.74 998.70 999.49 1000.33 1000.99 1001.56 1002.15 1002.50 1003.06 1003.58 1004.17 1004.78 1005.27 1005.74 1006.08 1006.54 1006.99
1006.81 1007.34 1008.39 1007.48 1006.39 1004.79 1004.80 1004.70 1004.19 1003.91 1002.53 1001.86 1001.17 998.97 996.61 996.38 996.12 997.17 996.18 994.92 994.02 993.41 993.46 994.07 994.99 995.88 996.65 997.49 998.38 999.29 1000.10 1000.75 1001.32 1001.84 1002.23 1002.77 1003.39 1003.94 1004.71 1005.12 1005.63 1006.03 1006.52 1006.94
1007.38 1007.54 1007.42 1007.06 1006.68 1005.48 1004.80 1003.96 1002.69 1003.30 1004.62 1003.25 1001.75 999.81 998.44 997.61 996.73 997.16 996.56 995.46 994.10 993.63 993.53 993.77 994.58 995.28 996.10 997.07 998.04 999.04 999.76 1000.34 1000.77 1001.35 1002.01 1002.66 1003.30 1003.83 1004.49 1005.14 1005.60 1006.06 1006.69 1007.24
1008.30 1007.67 1006.94 1006.81 1006.17 1006.41 1005.41 1002.41 1003.61 1005.51 1004.42 1003.34 1002.50 1001.32 1000.19 998.19 997.54 998.19 997.05 996.02 994.83 993.97 993.60 994.04 994.70 995.38 996.24 996.89 997.74 998.72 999.44 999.79 1000.30 1001.08 1001.80 1002.58 1003.35 1004.05 1004.66 1005.18 1005.75 1006.23 1006.77 1007.29
1008.51 1008.49 1008.08 1007.91 1007.48 1007.05 1006.53 1006.14 1005.78 1006.02 1005.24 1003.97 1003.13 1001.49 999.58 998.63 999.02 998.27 997.33 996.46 995.75 994.68 994.18 994.34 994.95 995.68 996.38 996.84 997.48 998.35 998.92 999.57 1000.22 1001.08 1001.86 1002.62 1003.40 1004.05 1004.67 1005.26 1005.87 1006.45 1006.87 1007.24
1008.69 1008.40 1008.20 1008.40 1007.83 1007.31 1006.12 1005.64 1005.21 1005.50 1004.80 1003.38 1002.71 1002.03 1000.44 999.43 998.75 997.58 997.34 996.94 996.14 995.17 995.10 994.87 995.33 996.29 996.95 997.22 997.51 997.73 998.49 999.25 1000.09 1001.02 1001.78 1002.53 1003.35 1004.26 1004.84 1005.40 1005.89 1006.32 1006.81 1007.17
1009.60 1008.68 1008.19 1007.61 1006.79 1005.46 1004.94 1005.22 1004.76 1003.92 1003.69 1002.87 1001.84 1000.38 999.07 999.33 998.80 998.45 997.19 996.54 996.24 996.26 995.84 995.47 995.21 996.15 996.72 997.20 997.67 997.77 998.11 998.94 999.98 1000.73 1001.53 1002.33 1003.13 1003.88 1004.81 1005.49 1006.07 1006.15 1006.32 1006.43
1009.46 1009.08 1008.03 1007.02 1006.95 1006.91 1005.90 1005.31 1004.39 1003.82 1002.94 1002.51 1001.73 1000.41 999.40 999.36 999.27 998.48 997.43 996.95 996.47 996.06 995.83 995.45 994.92 996.09 996.40 997.01 997.50 997.64 997.84 998.53 999.56 1000.56 1001.30 1002.03 1002.90 1003.77 1004.53 1005.32 1006.23 1006.40 1006.34 1006.40
Wind_Speed
3 4 20 22 18 11 9 18 8 2 13 16 18 18 20 14 9 14 21 15 17 18 14 12 16 8 8 5 8 9 10 9 10 9 6 5 5 4 3 5 9 9 7 7
5 21 14 10 7 14 15 14 16 8 9 11 15 23 24 21 18 19 20 17 15 8 9 11 7 8 9 7 6 8 8 9 6 6 4 4 4 2 4 4 5 6 8 7
11 4 9 17 12 15 16 20 15 12 14 23 12 12 12 13 11 12 9 13 11 10 13 13 9 9 7 8 8 8 9 11 8 8 6 5 4 4 2 2 2 4 6 6
10 9 14 12 22 13 20 8 16 16 11 16 9 19 23 18 23 18 13 10 10 13 10 9 8 7 8 7 7 10 9 10 9 8 8 7 5 4 3 4 2 4 6 6
10 7 2 13 15 14 20 12 15 13 11 16 19 7 26 6 18 14 12 11 15 14 11 11 9 9 7 7 9 10 10 8 8 8 8 6 5 3 2 2 6 4 4 5
14 8 11 9 11 9 5 8 10 10 4 10 9 9 29 16 22 14 6 12 14 13 9 3 8 11 9 8 10 10 11 6 8 8 8 9 8 6 5 4 4 3 2 3
3 10 15 12 12 9 5 2 2 3 6 18 13 10 23 6 3 8 11 12 13 11 8 10 15 14 12 12 12 10 10 7 8 9 8 8 8 8 8 6 4 4 2 2
2 4 6 2 2 2 6 10 6 8 4 7 9 16 18 19 30 21 20 17 15 4 8 11 14 15 15 14 12 11 10 9 9 9 8 7 7 5 4 5 4 4 3 3
2 4 5 9 7 7 6 10 5 5 15 1 8 10 19 21 23 21 22 9 12 7 10 13 13 14 13 12 11 12 12 8 8 8 7 7 6 7 6 5 4 3 2 2
1 3 7 5 4 5 10 3 5 4 7 10 7 8 12 7 10 12 11 15 6 9 12 13 12 12 11 10 10 9 9 9 7 8 7 6 6 6 5 4 4 3 3 4
4 4 4 5 4 5 2 4 4 4 4 10 6 10 7 13 12 15 15 12 16 16 17 16 14 13 12 11 11 9 9 8 8 7 6 6 6 6 5 4 4 4 3 5
4 2 4 10 16 17 7 5 6 4 10 5 11 20 8 11 11 12 10 12 15 17 17 15 14 14 13 13 11 10 8 9 8 7 6 6 6 5 5 4 4 4 4 4
4 3 4 10 4 5 4 3 2 6 6 18 6 10 10 9 15 16 4 11 13 14 14 15 15 14 13 13 11 10 9 9 7 6 7 6 6 5 4 4 4 3 4 4
4 4 6 7 9 6 10 9 6 2 3 10 18 16 21 17 20 19 7 12 17 17 18 17 15 14 13 13 12 11 9 10 7 7 7 8 6 6 5 4 4 4 3 5
6 5 9 15 16 17 17 19 11 9 6 3 6 10 19 19 20 21 13 16 17 18 18 17 17 15 14 14 12 11 11 9 8 9 8 8 6 6 5 5 4 4 3 4
3 4 3 15 19 20 21 19 13 14 11 10 16 18 17 20 14 7 20 22 21 20 19 18 17 16 15 15 13 12 11 9 10 8 8 7 7 7 6 5 5 5 4 5
7 5 3 9 9 4 7 12 13 7 5 3 5 8 11 6 14 9 3 22 22 21 21 20 19 17 16 15 13 12 11 9 10 8 8 8 7 7 6 6 6 5 5 5
7 6 4 8 8 5 2 5 2 4 8 3 9 18 11 1 3 8 9 3 16 18 18 18 16 15 15 14 11 10 10 11 11 9 9 8 6 7 6 6 6 5 4 6
16 6 4 4 4 3 5 6 7 6 2 12 17 12 15 5 10 9 8 6 2 19 17 17 15 15 14 15 11 12 11 11 11 11 10 9 6 9 7 7 6 4 6 5
10 7 4 3 6 4 3 11 15 13 5 17 20 18 4 7 11 5 9 8 7 13 16 17 16 15 15 14 13 13 12 11 11 11 9 10 9 10 8 7 7 4 5 5
2 3 10 10 4 2 12 19 21 7 6 19 17 17 14 8 5 9 9 7 5 4 13 16 18 18 17 15 15 14 12 11 11 11 9 7 8 10 8 7 4 6 6 6
2 4 2 3 2 1 20 20 11 6 8 17 18 10 8 10 13 10 7 5 9 5 10 14 15 14 13 15 15 14 13 11 8 9 9 8 9 8 7 8 6 6 7 7
2 3 4 3 3 1 1 5 6 6 10 10 13 13 11 10 7 7 5 5 6 8 6 7 8 10 12 14 15 15 14 9 8 10 11 11 9 8 8 8 8 6 5 6
4 5 1 4 6 6 3 5 8 9 12 13 15 9 9 10 10 9 5 5 6 9 9 3 10 7 7 9 12 15 12 11 11 11 11 11 11 8 6 5 6 6 6 5
2 7 8 5 5 10 8 12 11 11 12 14 18 12 13 10 12 7 8 10 10 7 6 2 10 8 7 7 8 10 13 11 12 12 12 11 9 11 7 5 5 6 6 8
0 2 4 3 9 4 11 11 16 11 12 16 18 21 16 9 9 6 9 10 10 10 10 10 10 8 10 9 8 9 12 13 13 12 11 10 9 7 8 7 3 7 4 9
Wind_Direction
206 186 219 209 216 237 261 246 268 232 216 227 244 257 261 252 243 262 265 269 261 256 251 255 245 204 180 204 166 170 147 143 140 146 131 124 141 131 136 159 171 182 190 176
197 229 235 247 219 231 249 264 266 290 289 235 246 255 263 264 258 247 255 258 252 256 262 257 245 193 184 159 146 147 130 141 131 126 116 118 128 153 152 164 156 174 173 175
217 219 229 240 239 245 230 236 254 261 294 288 292 284 284 266 250 257 262 249 265 240 251 247 200 197 154 161 153 129 135 131 126 121 106 80 63 50 60 80 158 180 167 155
254 227 254 249 230 230 246 241 237 254 249 258 213 279 267 266 263 263 241 247 245 247 246 244 197 164 171 156 126 116 126 129 132 124 118 135 152 146 199 175 146 152 154 165
231 284 169 236 242 224 252 259 231 236 234 252 263 294 266 250 257 246 247 247 251 255 238 234 189 166 142 138 134 127 123 127 133 128 133 139 128 136 127 105 138 146 154 175
226 219 247 246 264 256 326 244 244 253 230 250 213 198 272 245 244 245 217 242 254 265 264 169 145 138 136 124 128 129 129 127 134 135 135 129 130 143 119 109 117 134 163 202
268 234 237 241 257 270 207 52 248 254 195 237 157 212 235 249 279 222 237 246 252 244 160 151 149 147 144 142 138 134 132 131 131 125 123 126 128 125 129 140 150 155 185 236
255 285 174 32 99 271 213 175 193 193 204 228 276 230 241 231 261 265 259 246 251 238 167 164 159 152 146 146 141 135 135 130 125 124 124 119 127 121 124 145 155 175 190 202
191 252 341 319 308 137 307 221 177 287 273 272 227 275 283 275 275 267 268 237 244 193 158 156 147 140 142 142 140 145 135 130 125 127 120 120 117 124 139 148 150 173 169 191
217 292 253 287 299 240 206 251 174 205 199 239 254 256 236 256 261 265 261 244 169 145 137 139 135 137 137 139 134 137 134 133 139 127 132 143 147 135 146 133 145 167 174 162
309 159 297 349 241 217 276 217 190 159 194 219 257 249 197 263 259 278 296 202 154 155 153 149 144 144 141 136 140 147 134 130 132 136 149 141 135 147 138 144 174 177 161 157
308 154 270 259 266 256 257 255 171 214 238 258 243 252 312 252 278 285 240 162 159 158 155 141 143 144 143 144 146 152 135 138 148 152 147 144 138 136 126 134 159 169 162 159
331 327 325 328 319 43 241 103 5 282 204 237 249 265 226 283 276 280 227 148 147 143 138 137 147 150 152 151 156 151 145 150 151 144 134 141 138 132 146 156 153 164 151 173
239 227 201 221 253 306 289 275 306 86 277 248 243 281 273 272 278 292 143 172 156 156 150 148 150 151 156 156 157 151 150 155 151 137 146 143 146 160 161 164 156 153 166 167
155 232 225 255 265 266 262 265 255 234 233 236 302 297 291 289 281 266 181 174 154 154 152 156 156 154 160 154 154 153 156 156 145 158 158 145 154 156 150 139 132 137 145 161
131 268 304 277 271 256 252 252 235 232 235 248 250 273 274 277 288 272 173 167 162 159 156 156 156 154 162 158 156 157 162 159 150 162 162 154 146 150 154 135 122 128 118 118
180 197 261 271 342 109 229 238 232 231 195 208 241 237 303 307 336 39 255 163 159 158 160 160 161 163 163 164 159 161 165 150 156 155 160 158 155 147 161 142 133 141 131 113
222 171 197 277 278 218 188 59 17 302 237 8 279 259 263 196 244 44 20 200 155 154 158 160 161 165 162 162 159 154 145 157 157 158 163 162 170 144 146 138 138 143 125 123
211 201 259 261 299 255 194 17 343 335 169 21 336 301 173 203 50 5 11 311 180 164 163 163 165 163 158 160 153 156 150 155 158 164 176 166 156 145 147 147 149 138 120 121
181 200 182 308 274 295 141 319 297 281 218 355 337 322 25 340 77 287 302 307 331 177 161 162 162 161 157 161 152 154 159 155 169 168 181 174 153 151 155 153 152 133 134 133
332 218 232 243 261 274 338 310 276 176 338 314 322 336 353 60 116 299 296 295 319 234 173 163 159 165 167 155 153 160 164 170 171 175 172 151 151 152 149 144 139 130 124 118
307 295 299 291 264 332 355 358 52 347 329 330 319 320 314 20 35 293 312 345 351 357 148 161 160 161 162 158 156 161 170 178 160 155 160 141 141 153 145 145 135 131 133 135
303 349 325 350 333 107 165 13 4 318 314 303 307 306 0 23 354 303 2 21 357 5 71 106 145 145 161 164 164 164 180 165 149 137 146 145 144 144 148 141 142 133 136 148
323 354 55 228 172 292 39 51 347 306 297 320 302 298 13 10 356 341 26 35 37 24 18 97 116 123 156 176 173 174 167 162 144 147 147 150 142 139 142 131 145 144 154 154
326 318 307 248 7 347 3 344 332 332 335 319 320 345 354 359 356 324 16 20 30 41 17 265 130 156 181 178 185 174 169 148 149 151 153 156 154 154 147 135 151 168 186 180
43 320 326 320 335 320 290 310 324 332 336 323 331 328 334 347 334 319 29 15 8 22 27 23 31 203 183 182 183 181 173 153 152 156 158 161 158 158 156 150 122 39 21 197